EWG72D LOWS-EDDH

Flight info

Callsign EWG72D
Flight time 1h 11m
Altitude 34000
Route INROM2A/33 INROM DCT SIMBA Y700 NENUM DCT RUDNO M736 AKOSI DCT ALOSO DCT ABGUS DCT DIRBO/N0361F230 T902 RARUP RARUP3P
Aircraft A20N/M-SDE2E3FGHIRWXY/LB1

Departure

Time 2026-04-22 17:52
Airport Salzburg Airport (LOWS)

Arrival

Time 2026-04-22 19:03
Airport Hamburg Helmut Schmidt Airport (EDDH)
Time Latitude Longitude Altitude Speed Heading
2026-04-22 17:40 47.79284 13.00061 1421 ft 0 kts 102°
2026-04-22 17:46 47.79284 13.00062 1421 ft 0 kts 110°
2026-04-22 17:46 47.79273 13.00055 1421 ft 5 kts 234°
2026-04-22 17:46 47.79243 12.99986 1421 ft 8 kts 204°
2026-04-22 17:46 47.79188 13.00006 1421 ft 10 kts 159°
2026-04-22 17:47 47.79113 13.00050 1421 ft 13 kts 155°
2026-04-22 17:47 47.79026 13.00111 1421 ft 15 kts 157°
2026-04-22 17:47 47.78957 13.00217 1421 ft 16 kts 101°
2026-04-22 17:47 47.78930 13.00377 1419 ft 18 kts 141°
2026-04-22 17:48 47.78854 13.00426 1420 ft 18 kts 160°
2026-04-22 17:48 47.78683 13.00533 1421 ft 23 kts 159°
2026-04-22 17:48 47.78528 13.00628 1421 ft 25 kts 155°
2026-04-22 17:48 47.78364 13.00733 1421 ft 26 kts 157°
2026-04-22 17:49 47.78216 13.00846 1420 ft 20 kts 138°
2026-04-22 17:49 47.78193 13.00887 1423 ft 0 kts 120°
2026-04-22 17:50 47.78190 13.00894 1424 ft 3 kts 119°
2026-04-22 17:50 47.78194 13.01025 1418 ft 20 kts 66°
2026-04-22 17:50 47.78261 13.01096 1417 ft 4 kts 323°
2026-04-22 17:51 47.78290 13.01054 1417 ft 8 kts 326°
2026-04-22 17:51 47.78316 13.01038 1417 ft 0 kts 339°
2026-04-22 17:51 47.78318 13.01037 1417 ft 2 kts 339°
2026-04-22 17:51 47.78507 13.00917 1419 ft 64 kts 337°
2026-04-22 17:52 47.79122 13.00528 1418 ft 125 kts 337°
2026-04-22 17:52 47.80077 12.99937 1474 ft 165 kts 336°
2026-04-22 17:52 47.81096 12.99318 2200 ft 155 kts 336°
2026-04-22 17:52 47.82121 12.98878 2856 ft 158 kts 359°
2026-04-22 17:53 47.83211 12.99339 3339 ft 172 kts 33°
2026-04-22 17:53 47.84225 13.00467 3718 ft 191 kts 36°
2026-04-22 17:53 47.85325 13.01722 4100 ft 214 kts 37°
2026-04-22 17:53 47.86564 13.03134 4603 ft 234 kts 37°
2026-04-22 17:54 47.87910 13.04640 5176 ft 251 kts 36°
2026-04-22 17:54 47.89367 13.06222 5819 ft 265 kts 35°
2026-04-22 17:54 47.90901 13.07838 6591 ft 273 kts 34°
2026-04-22 17:54 47.92467 13.09458 7497 ft 272 kts 35°
2026-04-22 17:55 47.93471 13.10530 8340 ft 265 kts 36°
2026-04-22 17:55 47.95471 13.12711 9600 ft 268 kts 36°
2026-04-22 17:55 47.96985 13.14369 10391 ft 275 kts 36°
2026-04-22 17:55 47.98596 13.16109 10750 ft 296 kts 32°
2026-04-22 17:56 48.00550 13.17339 11044 ft 316 kts 12°
2026-04-22 17:56 48.02773 13.17388 11652 ft 324 kts 352°
2026-04-22 17:56 48.04901 13.16231 12036 ft 330 kts 335°
2026-04-22 17:56 48.06903 13.14617 12230 ft 332 kts 334°
2026-04-22 17:57 48.08937 13.12957 12348 ft 334 kts 334°
2026-04-22 17:57 48.10992 13.11285 13002 ft 336 kts 335°
2026-04-22 17:57 48.13050 13.09616 13881 ft 337 kts 335°
2026-04-22 17:57 48.15127 13.07938 14570 ft 341 kts 335°
2026-04-22 17:58 48.17226 13.06248 15239 ft 344 kts 335°
2026-04-22 17:58 48.19345 13.04541 15909 ft 348 kts 335°
2026-04-22 17:58 48.21502 13.02886 16565 ft 350 kts 339°
2026-04-22 17:58 48.23795 13.01639 17217 ft 351 kts 347°
2026-04-22 17:59 48.26153 13.00876 17847 ft 352 kts 354°
2026-04-22 17:59 48.28591 13.00366 18489 ft 355 kts 354°
2026-04-22 17:59 48.31059 12.99827 19041 ft 359 kts 354°
2026-04-22 17:59 48.33547 12.99275 19609 ft 362 kts 354°
2026-04-22 18:00 48.35202 12.98906 19978 ft 364 kts 354°
2026-04-22 18:00 48.38575 12.98159 20698 ft 369 kts 354°
2026-04-22 18:00 48.41126 12.97594 21245 ft 372 kts 354°
2026-04-22 18:00 48.43703 12.97024 21770 ft 375 kts 354°
2026-04-22 18:01 48.46260 12.96459 22290 ft 378 kts 355°
2026-04-22 18:01 48.48876 12.95880 22817 ft 382 kts 355°
2026-04-22 18:01 48.51515 12.95295 23328 ft 385 kts 355°
2026-04-22 18:01 48.54164 12.94545 23824 ft 391 kts 349°
2026-04-22 18:02 48.56784 12.93310 24251 ft 396 kts 345°
2026-04-22 18:02 48.59414 12.91973 24685 ft 399 kts 345°
2026-04-22 18:02 48.62057 12.90648 25113 ft 401 kts 345°
2026-04-22 18:02 48.64717 12.89316 25529 ft 404 kts 345°
2026-04-22 18:03 48.67395 12.87971 25929 ft 407 kts 345°
2026-04-22 18:03 48.70096 12.86612 26320 ft 410 kts 345°
2026-04-22 18:03 48.72812 12.85242 26699 ft 413 kts 345°
2026-04-22 18:03 48.75515 12.83875 27068 ft 416 kts 346°
2026-04-22 18:04 48.77374 12.82935 27323 ft 418 kts 346°
2026-04-22 18:04 48.81042 12.81077 27786 ft 421 kts 346°
2026-04-22 18:04 48.83837 12.79659 28126 ft 424 kts 346°
2026-04-22 18:04 48.85703 12.78712 28346 ft 426 kts 346°
2026-04-22 18:05 48.88529 12.77275 28669 ft 429 kts 346°
2026-04-22 18:05 48.91369 12.75830 28986 ft 431 kts 346°
2026-04-22 18:05 48.94230 12.74372 29274 ft 435 kts 346°
2026-04-22 18:05 48.98044 12.72427 29681 ft 437 kts 346°
2026-04-22 18:06 49.00941 12.70946 29963 ft 440 kts 346°
2026-04-22 18:06 49.02905 12.69942 30162 ft 442 kts 346°
2026-04-22 18:06 49.05827 12.68445 30422 ft 445 kts 346°
2026-04-22 18:06 49.08768 12.66938 30702 ft 446 kts 346°
2026-04-22 18:07 49.11707 12.65428 30992 ft 447 kts 346°
2026-04-22 18:07 49.14664 12.63908 31283 ft 448 kts 346°
2026-04-22 18:07 49.17621 12.62386 31625 ft 448 kts 346°
2026-04-22 18:07 49.20574 12.60871 32008 ft 446 kts 346°
2026-04-22 18:08 49.23509 12.59321 32386 ft 446 kts 343°
2026-04-22 18:08 49.26413 12.57648 32758 ft 445 kts 343°
2026-04-22 18:08 49.29270 12.55994 33116 ft 444 kts 343°
2026-04-22 18:08 49.32159 12.54349 33484 ft 442 kts 343°
2026-04-22 18:09 49.35047 12.52730 33789 ft 440 kts 343°
2026-04-22 18:09 49.37926 12.51129 34067 ft 438 kts 344°
2026-04-22 18:09 49.40791 12.49541 34253 ft 438 kts 343°
2026-04-22 18:10 49.46528 12.46359 34273 ft 437 kts 344°
2026-04-22 18:10 49.52232 12.43186 34278 ft 438 kts 344°
2026-04-22 18:11 49.57972 12.39982 34280 ft 439 kts 344°
2026-04-22 18:11 49.63722 12.36765 34280 ft 439 kts 344°
2026-04-22 18:12 49.69481 12.33535 34283 ft 440 kts 344°
2026-04-22 18:12 49.75240 12.30296 34279 ft 441 kts 344°
2026-04-22 18:13 49.80977 12.27061 34286 ft 442 kts 344°
2026-04-22 18:13 49.86761 12.23792 34291 ft 442 kts 344°
2026-04-22 18:14 49.92541 12.20517 34299 ft 443 kts 344°
2026-04-22 18:14 49.98331 12.17228 34310 ft 444 kts 344°
2026-04-22 18:15 50.04141 12.13920 34315 ft 444 kts 344°
2026-04-22 18:15 50.09951 12.10601 34308 ft 445 kts 344°
2026-04-22 18:16 50.15764 12.07272 34304 ft 445 kts 344°
2026-04-22 18:16 50.21582 12.03933 34302 ft 446 kts 344°
2026-04-22 18:17 50.27401 12.00583 34294 ft 446 kts 344°
2026-04-22 18:17 50.33234 11.97217 34291 ft 446 kts 344°
2026-04-22 18:18 50.39069 11.93842 34294 ft 447 kts 344°
2026-04-22 18:18 50.44872 11.90476 34300 ft 447 kts 344°
2026-04-22 18:19 50.50718 11.87076 34307 ft 448 kts 344°
2026-04-22 18:19 50.56567 11.83665 34312 ft 448 kts 344°
2026-04-22 18:20 50.62416 11.80246 34317 ft 449 kts 344°
2026-04-22 18:20 50.68233 11.76836 34321 ft 449 kts 344°
2026-04-22 18:21 50.74089 11.73394 34321 ft 450 kts 344°
2026-04-22 18:21 50.79965 11.69930 34318 ft 450 kts 344°
2026-04-22 18:22 50.85847 11.66455 34314 ft 451 kts 344°
2026-04-22 18:22 50.91734 11.62966 34320 ft 452 kts 345°
2026-04-22 18:23 50.97593 11.59486 34314 ft 452 kts 345°
2026-04-22 18:23 51.03493 11.55970 34322 ft 453 kts 345°
2026-04-22 18:24 51.12359 11.50670 34317 ft 454 kts 345°
2026-04-22 18:25 51.21245 11.45336 34318 ft 455 kts 345°
2026-04-22 18:25 51.27181 11.41761 34328 ft 456 kts 345°
2026-04-22 18:26 51.36111 11.36363 34329 ft 457 kts 345°
2026-04-22 18:26 51.42036 11.32770 34326 ft 458 kts 345°
2026-04-22 18:27 51.48000 11.29141 34330 ft 459 kts 345°
2026-04-22 18:27 51.53982 11.25493 34324 ft 460 kts 345°
2026-04-22 18:28 51.59971 11.21829 34328 ft 460 kts 345°
2026-04-22 18:28 51.65970 11.18150 34326 ft 461 kts 345°
2026-04-22 18:29 51.71937 11.14478 34329 ft 462 kts 345°
2026-04-22 18:29 51.77948 11.10771 34325 ft 462 kts 345°
2026-04-22 18:30 51.87019 11.05541 34322 ft 457 kts 353°
2026-04-22 18:31 51.93254 11.03983 34329 ft 452 kts 358°
2026-04-22 18:31 51.99497 11.02562 34328 ft 453 kts 358°
2026-04-22 18:32 52.05745 11.01230 34324 ft 453 kts 359°
2026-04-22 18:32 52.11999 10.99947 34323 ft 453 kts 359°
2026-04-22 18:33 52.18268 10.98665 34321 ft 454 kts 359°
2026-04-22 18:33 52.24507 10.97383 34316 ft 454 kts 360°
2026-04-22 18:34 52.30799 10.96085 34313 ft 455 kts 360°
2026-04-22 18:34 52.37087 10.94785 34315 ft 456 kts
2026-04-22 18:35 52.43390 10.93479 34318 ft 456 kts
2026-04-22 18:35 52.49658 10.92177 33848 ft 457 kts
2026-04-22 18:35 52.52825 10.91521 33195 ft 458 kts 360°
2026-04-22 18:36 52.55995 10.90862 32504 ft 458 kts 359°
2026-04-22 18:36 52.59157 10.90201 31825 ft 456 kts 359°
2026-04-22 18:36 52.62302 10.89544 31168 ft 456 kts 358°
2026-04-22 18:36 52.65447 10.88888 30528 ft 456 kts 358°
2026-04-22 18:37 52.68595 10.88231 29794 ft 455 kts 358°
2026-04-22 18:37 52.71731 10.87574 29059 ft 453 kts 358°
2026-04-22 18:37 52.73792 10.87141 28580 ft 451 kts 357°
2026-04-22 18:37 52.77949 10.86267 27630 ft 447 kts 357°
2026-04-22 18:38 52.81026 10.85619 26955 ft 445 kts 356°
2026-04-22 18:38 52.84046 10.84983 26308 ft 442 kts 356°
2026-04-22 18:38 52.87084 10.84342 25648 ft 439 kts 356°
2026-04-22 18:39 52.93123 10.83067 24379 ft 433 kts 355°
2026-04-22 18:39 52.96102 10.82437 23751 ft 430 kts 355°
2026-04-22 18:39 52.99068 10.81806 23029 ft 427 kts 355°
2026-04-22 18:39 53.02012 10.81179 22325 ft 424 kts 355°
2026-04-22 18:40 53.04892 10.80564 21643 ft 420 kts 354°
2026-04-22 18:40 53.07788 10.79945 20974 ft 417 kts 354°
2026-04-22 18:40 53.10659 10.79331 20319 ft 413 kts 354°
2026-04-22 18:40 53.13501 10.78723 19674 ft 410 kts 354°
2026-04-22 18:41 53.16321 10.78118 19044 ft 406 kts 354°
2026-04-22 18:41 53.19108 10.77519 18397 ft 403 kts 354°
2026-04-22 18:41 53.21883 10.76922 17697 ft 399 kts 354°
2026-04-22 18:41 53.24591 10.76338 17015 ft 395 kts 354°
2026-04-22 18:42 53.27309 10.75752 16347 ft 391 kts 354°
2026-04-22 18:42 53.30013 10.75168 15689 ft 388 kts 354°
2026-04-22 18:42 53.32675 10.74591 15040 ft 384 kts 354°
2026-04-22 18:42 53.35317 10.74017 14412 ft 380 kts 354°
2026-04-22 18:43 53.37932 10.73449 13738 ft 377 kts 354°
2026-04-22 18:43 53.40524 10.72895 13062 ft 374 kts 354°
2026-04-22 18:43 53.43097 10.72360 12405 ft 370 kts 354°
2026-04-22 18:43 53.45644 10.71843 11760 ft 367 kts 354°
2026-04-22 18:44 53.48126 10.71354 11244 ft 361 kts 354°
2026-04-22 18:44 53.50596 10.70876 10749 ft 354 kts 354°
2026-04-22 18:44 53.53009 10.70360 10408 ft 344 kts 348°
2026-04-22 18:44 53.55160 10.68823 10319 ft 330 kts 326°
2026-04-22 18:45 53.56723 10.66124 10250 ft 320 kts 304°
2026-04-22 18:45 53.57506 10.62714 10081 ft 308 kts 281°
2026-04-22 18:45 53.57388 10.59208 9914 ft 298 kts 256°
2026-04-22 18:45 53.56536 10.56066 9645 ft 294 kts 244°
2026-04-22 18:46 53.55565 10.53043 9243 ft 293 kts 244°
2026-04-22 18:46 53.54601 10.50047 8874 ft 291 kts 244°
2026-04-22 18:46 53.53641 10.47067 8494 ft 289 kts 244°
2026-04-22 18:46 53.52687 10.44107 8118 ft 287 kts 244°
2026-04-22 18:47 53.51739 10.41163 7840 ft 283 kts 244°
2026-04-22 18:47 53.50808 10.38279 7590 ft 285 kts 244°
2026-04-22 18:47 53.49865 10.35367 7388 ft 281 kts 244°
2026-04-22 18:47 53.48929 10.32485 7330 ft 282 kts 244°
2026-04-22 18:48 53.47989 10.29582 7346 ft 283 kts 244°
2026-04-22 18:48 53.47050 10.26686 7347 ft 282 kts 244°
2026-04-22 18:48 53.46315 10.23664 7348 ft 278 kts 264°
2026-04-22 18:48 53.46396 10.20475 7224 ft 274 kts 289°
2026-04-22 18:49 53.47298 10.17725 6878 ft 268 kts 316°
2026-04-22 18:49 53.48783 10.15980 6510 ft 263 kts 334°
2026-04-22 18:49 53.50425 10.14560 6137 ft 261 kts 334°
2026-04-22 18:49 53.52030 10.13313 5875 ft 255 kts 346°
2026-04-22 18:50 53.53797 10.13241 5626 ft 258 kts 13°
2026-04-22 18:50 53.55375 10.14634 5375 ft 259 kts 40°
2026-04-22 18:50 53.56647 10.16807 5130 ft 261 kts 44°
2026-04-22 18:50 53.57897 10.19011 5003 ft 267 kts 44°
2026-04-22 18:51 53.59270 10.21429 5000 ft 298 kts 44°
2026-04-22 18:51 53.60214 10.23083 4990 ft 290 kts 44°
2026-04-22 18:51 53.61554 10.25439 4989 ft 266 kts 44°
2026-04-22 18:51 53.62778 10.27600 4996 ft 246 kts 44°
2026-04-22 18:52 53.64011 10.29784 4993 ft 261 kts 44°
2026-04-22 18:52 53.65226 10.31940 4985 ft 246 kts 44°
2026-04-22 18:52 53.66365 10.33980 4995 ft 231 kts 44°
2026-04-22 18:52 53.67449 10.35933 4994 ft 229 kts 44°
2026-04-22 18:53 53.68540 10.37900 4957 ft 230 kts 44°
2026-04-22 18:53 53.69617 10.39841 4960 ft 228 kts 44°
2026-04-22 18:53 53.70709 10.41817 4958 ft 230 kts 44°
2026-04-22 18:53 53.71801 10.43794 4957 ft 229 kts 44°
2026-04-22 18:54 53.72869 10.45738 4950 ft 229 kts 44°
2026-04-22 18:54 53.73950 10.47721 4949 ft 229 kts 44°
2026-04-22 18:54 53.75029 10.49701 4957 ft 228 kts 44°
2026-04-22 18:54 53.76109 10.51686 4949 ft 230 kts 44°
2026-04-22 18:55 53.77187 10.53669 4952 ft 228 kts 44°
2026-04-22 18:55 53.78267 10.55639 4939 ft 229 kts 40°
2026-04-22 18:55 53.79626 10.56893 4942 ft 222 kts
2026-04-22 18:55 53.81142 10.56684 4941 ft 221 kts 337°
2026-04-22 18:56 53.82341 10.55087 4938 ft 224 kts 305°
2026-04-22 18:56 53.82835 10.52581 4951 ft 230 kts 273°
2026-04-22 18:56 53.82658 10.49868 4944 ft 234 kts 264°
2026-04-22 18:56 53.82400 10.47174 4956 ft 234 kts 264°
2026-04-22 18:57 53.82144 10.44465 4952 ft 233 kts 264°
2026-04-22 18:57 53.81884 10.41760 4956 ft 233 kts 264°
2026-04-22 18:57 53.81621 10.39054 4952 ft 234 kts 263°
2026-04-22 18:57 53.81136 10.36409 4960 ft 238 kts 247°
2026-04-22 18:58 53.80267 10.34014 4963 ft 240 kts 237°
2026-04-22 18:58 53.79226 10.31787 4890 ft 242 kts 233°
2026-04-22 18:58 53.78147 10.29598 4624 ft 243 kts 233°
2026-04-22 18:58 53.77072 10.27399 4284 ft 242 kts 233°
2026-04-22 18:59 53.76011 10.25235 3954 ft 234 kts 233°
2026-04-22 18:59 53.74989 10.23149 3642 ft 226 kts 233°
2026-04-22 18:59 53.74001 10.21133 3347 ft 221 kts 233°
2026-04-22 18:59 53.73024 10.19140 3039 ft 219 kts 233°
2026-04-22 19:00 53.72053 10.17160 2735 ft 216 kts 233°
2026-04-22 19:00 53.71106 10.15233 2438 ft 209 kts 233°
2026-04-22 19:00 53.70195 10.13378 2218 ft 199 kts 233°
2026-04-22 19:00 53.69335 10.11628 1920 ft 190 kts 234°
2026-04-22 19:01 53.68508 10.09946 1638 ft 181 kts 234°
2026-04-22 19:01 53.67742 10.08392 1396 ft 164 kts 235°
2026-04-22 19:01 53.67055 10.06995 1190 ft 150 kts 236°
2026-04-22 19:01 53.66420 10.05708 985 ft 136 kts 236°
2026-04-22 19:02 53.65827 10.04503 763 ft 133 kts 237°
2026-04-22 19:02 53.65251 10.03297 604 ft 130 kts 236°
2026-04-22 19:02 53.64666 10.02106 438 ft 133 kts 234°
2026-04-22 19:02 53.64073 10.00905 244 ft 131 kts 234°
2026-04-22 19:03 53.63495 9.99737 63 ft 130 kts 234°
2026-04-22 19:03 53.62987 9.98702 47 ft 91 kts 229°
2026-04-22 19:03 53.62680 9.98084 47 ft 59 kts 231°
2026-04-22 19:03 53.62467 9.97789 42 ft 20 kts 167°
2026-04-22 19:04 53.62428 9.97886 44 ft 12 kts 91°
2026-04-22 19:04 53.62442 9.98024 43 ft 13 kts 73°
2026-04-22 19:04 53.62495 9.98157 44 ft 15 kts 48°
2026-04-22 19:04 53.62568 9.98299 45 ft 17 kts 49°
2026-04-22 19:05 53.62649 9.98461 45 ft 19 kts 49°
2026-04-22 19:05 53.62736 9.98646 46 ft 21 kts 52°
2026-04-22 19:05 53.62834 9.98843 46 ft 23 kts 49°
2026-04-22 19:05 53.62926 9.99030 47 ft 17 kts 50°
2026-04-22 19:06 53.63007 9.99192 47 ft 19 kts 50°
2026-04-22 19:06 53.63091 9.99380 47 ft 21 kts 56°
2026-04-22 19:06 53.63176 9.99590 47 ft 23 kts 55°
2026-04-22 19:07 53.63227 9.99687 48 ft 0 kts 48°
2026-04-22 19:07 53.63229 9.99690 45 ft 2 kts 47°
2026-04-22 19:07 53.63298 9.99803 49 ft 22 kts 45°
2026-04-22 19:08 53.63379 9.99965 50 ft 5 kts 50°
2026-04-22 19:08 53.63382 9.99971 50 ft 0 kts 50°
2026-04-22 19:09 53.63391 9.99989 50 ft 10 kts 50°
2026-04-22 19:09 53.63415 10.00040 50 ft 4 kts 50°
2026-04-22 19:10 53.63452 10.00115 51 ft 13 kts 51°
2026-04-22 19:10 53.63448 10.00236 51 ft 12 kts 95°
2026-04-22 19:10 53.63450 10.00318 51 ft 3 kts 83°
2026-04-22 19:10 53.63451 10.00324 51 ft 0 kts 83°